Date,TemperatureHighF,TemperatureAvgF,TemperatureLowF,DewpointHighF,DewpointAvgF,DewpointLowF,HumidityHigh,HumidityAvg,HumidityLow,PressureMaxIn,PressureMinIn,WindSpeedMaxMPH,WindSpeedAvgMPH,GustSpeedMaxMPH,PrecipitationSumIn
2013-2-1,50,46,43,47,44,42,99,95,84,30.35,30.28,10,1,11,0.01
2013-2-2,43,41,39,42,40,38,99,97,95,30.33,30.21,10,2,12,0.01
2013-2-3,48,44,39,44,42,39,99,94,87,30.24,30.15,8,2,12,0.01
2013-2-4,50,47,45,45,43,42,95,88,76,30.15,29.83,10,2,13,0.01
2013-2-5,51,47,45,44,43,42,95,87,73,29.87,29.79,26,8,30,0.01
2013-2-6,50,46,44,43,42,40,92,85,68,30.00,29.73,21,6,29,0.01
2013-2-7,50,45,38,42,38,36,93,79,62,30.13,29.74,24,6,30,0.01
2013-2-8,45,41,36,40,38,35,98,90,76,30.25,30.14,5,0,6,0.01
2013-2-9,44,42,41,42,40,38,96,91,80,30.28,30.21,5,0,7,0.01
2013-2-10,46,41,35,41,38,35,100,92,71,30.33,30.28,9,1,12,0.01
2013-2-11,47,44,41,43,41,39,97,89,78,30.31,30.28,10,1,13,0.01
2013-2-12,51,47,45,47,45,42,98,93,83,30.36,30.25,19,5,26,0.01
2013-2-13,49,46,45,46,43,41,96,89,84,30.45,30.26,11,2,18,0.01
2013-2-14,48,46,44,46,44,41,100,92,86,30.51,30.45,10,1,11,0.01
2013-2-15,56,46,41,47,43,40,100,92,70,30.51,30.20,9,2,10,0.01
2013-2-16,53,46,42,45,42,39,97,87,65,30.14,30.06,22,5,27,0.01
2013-2-17,45,42,41,40,38,37,94,86,73,30.19,30.06,11,2,12,0.01
2013-2-18,45,43,40,40,39,36,94,86,71,30.06,29.71,18,2,18,0.01
2013-2-19,49,43,37,40,38,34,95,82,55,29.96,29.68,11,1,15,0.01
2013-2-20,45,41,36,41,38,34,97,91,80,29.99,29.94,16,2,21,0.01
2013-2-21,45,42,40,41,40,38,97,90,83,30.01,29.95,27,8,33,0.01
2013-2-22,45,42,40,42,38,35,92,84,78,29.85,29.67,33,11,37,0.01
2013-2-23,47,43,40,40,38,36,94,82,66,30.33,29.85,13,5,19,0.01
2013-2-24,48,45,41,39,37,36,87,75,64,30.33,29.90,24,8,28,0.01
2013-2-25,52,45,41,40,37,31,92,76,45,30.25,29.82,28,9,35,0.01
2013-2-26,47,44,39,38,36,33,88,74,58,30.29,30.14,17,5,22,0.01
2013-2-27,48,44,41,44,41,38,100,90,77,30.25,30.15,14,2,18,0.01
2013-2-28,53,48,43,51,46,42,98,96,93,30.27,30.14,18,4,24,0.01